BCS4LG LIMC-OBBI

Flight info

Callsign BCS4LG
Flight time 5h 15m
Altitude 33000
Route VAKON DCT OTKEK DCT LABIN DCT ELTIB DCT MITNO DCT NISVA DCT ADORU UT302 TIRER UN644 BKZ UL333 ASMAP UT341 BAG UL614 GOBIT UG8 MARTI UL614 EZS UT36 RENGI UT253 OTKEP UM688 RATVO M688 SOBIL/N0486F350 M688 SIDAD P975 LONOS L703 KOBOK
Aircraft B77L/H-SDE1E2E3FGHIJ2J3J4J5M1RWXY/LB1D1

Departure

Time 2026-05-04 07:38
Airport Milan Malpensa International Airport (LIMC)

Arrival

Time 2026-05-04 12:53
Airport Bahrain International Airport (OBBI)
Time Latitude Longitude Altitude Speed Heading
2026-05-04 07:23 45.61630 8.71978 757 ft 0 kts 259°
2026-05-04 07:28 45.61636 8.72011 752 ft 4 kts 247°
2026-05-04 07:29 45.61649 8.72044 752 ft 4 kts 229°
2026-05-04 07:29 45.61668 8.72070 752 ft 4 kts 210°
2026-05-04 07:29 45.61693 8.72085 753 ft 4 kts 191°
2026-05-04 07:29 45.61719 8.72088 752 ft 4 kts 172°
2026-05-04 07:30 45.61727 8.72086 753 ft 0 kts 169°
2026-05-04 07:33 45.61671 8.72100 752 ft 12 kts 170°
2026-05-04 07:33 45.61588 8.72122 754 ft 12 kts 169°
2026-05-04 07:33 45.61504 8.72147 753 ft 12 kts 168°
2026-05-04 07:34 45.61420 8.72171 757 ft 12 kts 165°
2026-05-04 07:34 45.61387 8.72273 754 ft 12 kts 87°
2026-05-04 07:34 45.61400 8.72395 756 ft 12 kts 80°
2026-05-04 07:34 45.61416 8.72515 756 ft 12 kts 79°
2026-05-04 07:35 45.61422 8.72561 753 ft 1 kts 79°
2026-05-04 07:35 45.61433 8.72638 748 ft 14 kts 78°
2026-05-04 07:35 45.61484 8.72715 751 ft 12 kts
2026-05-04 07:35 45.61518 8.72708 750 ft 0 kts 348°
2026-05-04 07:38 45.66870 8.71137 1493 ft 194 kts 326°
2026-05-04 07:38 45.67816 8.69757 1819 ft 195 kts 309°
2026-05-04 07:38 45.68724 8.68322 2248 ft 197 kts 315°
2026-05-04 07:38 45.69790 8.66979 2514 ft 213 kts 318°
2026-05-04 07:39 45.70969 8.65575 2816 ft 226 kts 319°
2026-05-04 07:39 45.72209 8.64145 3231 ft 230 kts 326°
2026-05-04 07:39 45.73729 8.63454 3639 ft 235 kts
2026-05-04 07:39 45.75239 8.64202 4080 ft 237 kts 41°
2026-05-04 07:40 45.76258 8.66002 4579 ft 233 kts 62°
2026-05-04 07:40 45.77051 8.68064 4982 ft 241 kts 63°
2026-05-04 07:40 45.77865 8.70179 5527 ft 243 kts 63°
2026-05-04 07:40 45.78625 8.72319 6120 ft 238 kts 75°
2026-05-04 07:41 45.78677 8.74643 6454 ft 241 kts 111°
2026-05-04 07:41 45.77738 8.76696 6604 ft 254 kts 132°
2026-05-04 07:41 45.76578 8.78673 6986 ft 264 kts 129°
2026-05-04 07:41 45.75453 8.80790 7510 ft 269 kts 128°
2026-05-04 07:42 45.74337 8.82956 8143 ft 271 kts 128°
2026-05-04 07:42 45.73225 8.85140 8834 ft 273 kts 128°
2026-05-04 07:42 45.72184 8.87412 9381 ft 276 kts 117°
2026-05-04 07:42 45.71554 8.90058 9904 ft 284 kts 109°
2026-05-04 07:43 45.71010 8.92802 10423 ft 290 kts 110°
2026-05-04 07:43 45.70431 8.95653 10585 ft 309 kts 110°
2026-05-04 07:43 45.69803 8.98699 10734 ft 328 kts 110°
2026-05-04 07:43 45.69133 9.01913 10892 ft 348 kts 110°
2026-05-04 07:44 45.68419 9.05317 11047 ft 366 kts 110°
2026-05-04 07:44 45.67672 9.08852 11453 ft 376 kts 110°
2026-05-04 07:44 45.66915 9.12425 11976 ft 383 kts 110°
2026-05-04 07:44 45.66136 9.16089 12614 ft 387 kts 110°
2026-05-04 07:45 45.65345 9.19793 13253 ft 391 kts 110°
2026-05-04 07:45 45.64545 9.23528 13869 ft 396 kts 110°
2026-05-04 07:45 45.63731 9.27309 14414 ft 400 kts 110°
2026-05-04 07:45 45.62911 9.31117 15015 ft 402 kts 110°
2026-05-04 07:46 45.62084 9.34946 15634 ft 404 kts 110°
2026-05-04 07:46 45.61250 9.38803 16307 ft 406 kts 110°
2026-05-04 07:46 45.60411 9.42673 16917 ft 408 kts 110°
2026-05-04 07:46 45.59570 9.46543 17592 ft 409 kts 110°
2026-05-04 07:47 45.58722 9.50438 18149 ft 412 kts 110°
2026-05-04 07:47 45.57875 9.54317 18624 ft 417 kts 110°
2026-05-04 07:47 45.57008 9.58285 19076 ft 421 kts 110°
2026-05-04 07:49 45.50684 9.87012 22194 ft 446 kts 109°
2026-05-04 07:49 45.49744 9.91262 22623 ft 450 kts 109°
2026-05-04 07:49 45.48793 9.95543 23033 ft 454 kts 109°
2026-05-04 07:50 45.47840 9.99853 23459 ft 458 kts 108°
2026-05-04 07:50 45.47032 10.04272 23848 ft 463 kts 105°
2026-05-04 07:50 45.46289 10.08748 24206 ft 466 kts 105°
2026-05-04 07:50 45.45548 10.13255 24614 ft 468 kts 105°
2026-05-04 07:51 45.44800 10.17782 25047 ft 470 kts 105°
2026-05-04 07:51 45.44052 10.22264 25468 ft 471 kts 105°
2026-05-04 07:51 45.43285 10.26824 25846 ft 474 kts 105°
2026-05-04 07:51 45.42508 10.31416 26207 ft 478 kts 105°
2026-05-04 07:52 45.41723 10.36026 26568 ft 481 kts 105°
2026-05-04 07:52 45.40930 10.40672 26955 ft 484 kts 105°
2026-05-04 07:52 45.40131 10.45339 27331 ft 486 kts 105°
2026-05-04 07:52 45.39327 10.50030 27704 ft 489 kts 105°
2026-05-04 07:53 45.38517 10.54744 28042 ft 493 kts 105°
2026-05-04 07:54 45.33277 10.88673 30419 ft 509 kts 103°
2026-05-04 07:55 45.32571 10.93591 30788 ft 508 kts 103°
2026-05-04 07:55 45.31856 10.98496 31186 ft 507 kts 103°
2026-05-04 07:55 45.31135 11.03390 31589 ft 505 kts 103°
2026-05-04 07:55 45.30411 11.08264 31969 ft 504 kts 103°
2026-05-04 07:56 45.29685 11.13127 32331 ft 503 kts 103°
2026-05-04 07:56 45.28958 11.17977 32665 ft 502 kts 103°
2026-05-04 07:56 45.28230 11.22824 33007 ft 502 kts 103°
2026-05-04 07:56 45.27497 11.27688 33080 ft 505 kts 103°
2026-05-04 07:57 45.26023 11.37447 33098 ft 503 kts 103°
2026-05-04 07:57 45.24555 11.47107 33098 ft 499 kts 103°
2026-05-04 07:58 45.23331 11.55117 33108 ft 498 kts 104°
2026-05-04 07:58 45.21852 11.64733 33103 ft 498 kts 103°
2026-05-04 07:59 45.20375 11.74283 33109 ft 499 kts 103°
2026-05-04 07:59 45.18877 11.83920 33111 ft 500 kts 104°
2026-05-04 08:00 45.17368 11.93559 33112 ft 502 kts 104°
2026-05-04 08:02 45.11230 12.32225 33105 ft 505 kts 104°
2026-05-04 08:02 45.09668 12.41920 33101 ft 505 kts 104°
2026-05-04 08:03 45.08097 12.51620 33104 ft 505 kts 104°
2026-05-04 08:03 45.06520 12.61295 33106 ft 505 kts 104°
2026-05-04 08:04 45.04931 12.70990 33120 ft 505 kts 104°
2026-05-04 08:04 45.03355 12.80554 33104 ft 506 kts 104°
2026-05-04 08:05 45.01750 12.90241 33113 ft 506 kts 104°
2026-05-04 08:05 45.00146 12.99869 33116 ft 506 kts 104°
2026-05-04 08:06 44.98524 13.09556 33107 ft 506 kts 104°
2026-05-04 08:06 44.96911 13.19239 33118 ft 507 kts 103°
2026-05-04 08:08 44.90426 13.57970 33121 ft 508 kts 103°
2026-05-04 08:11 44.82946 14.01539 33128 ft 510 kts 103°
2026-05-04 08:11 44.80403 14.16110 33117 ft 510 kts 104°
2026-05-04 08:12 44.78697 14.25818 33119 ft 511 kts 103°
2026-05-04 08:12 44.76982 14.35527 33117 ft 511 kts 103°
2026-05-04 08:13 44.75257 14.45238 33119 ft 511 kts 104°
2026-05-04 08:13 44.73523 14.54950 33128 ft 511 kts 103°
2026-05-04 08:14 44.71792 14.64592 33121 ft 512 kts 103°
2026-05-04 08:16 44.64737 15.03376 33126 ft 512 kts 104°
2026-05-04 08:16 44.62953 15.13061 33129 ft 512 kts 104°
2026-05-04 08:17 44.61173 15.22670 33134 ft 512 kts 104°
2026-05-04 08:17 44.59371 15.32343 33129 ft 512 kts 104°
2026-05-04 08:19 44.52103 15.70884 33135 ft 512 kts 104°
2026-05-04 08:20 44.50261 15.80526 33137 ft 512 kts 104°
2026-05-04 08:20 44.48413 15.90156 33129 ft 512 kts 104°
2026-05-04 08:21 44.46557 15.99774 33144 ft 512 kts 104°
2026-05-04 08:21 44.44693 16.09391 33136 ft 511 kts 104°
2026-05-04 08:22 44.42825 16.18978 33145 ft 511 kts 104°
2026-05-04 08:24 44.35282 16.57222 33142 ft 511 kts 104°
2026-05-04 08:24 44.33372 16.66791 33151 ft 511 kts 103°
2026-05-04 08:25 44.31455 16.76358 33142 ft 512 kts 103°
2026-05-04 08:25 44.29518 16.85929 33143 ft 512 kts 104°
2026-05-04 08:27 44.21552 17.23992 33152 ft 510 kts 104°
2026-05-04 08:28 44.19548 17.33487 33153 ft 510 kts 104°
2026-05-04 08:28 44.17539 17.42949 33156 ft 509 kts 104°
2026-05-04 08:29 44.15525 17.52402 33168 ft 508 kts 104°
2026-05-04 08:31 44.07416 17.90018 33180 ft 507 kts 104°
2026-05-04 08:33 43.99187 18.27515 33181 ft 507 kts 104°
2026-05-04 08:35 43.90840 18.64892 33193 ft 507 kts 104°
2026-05-04 08:35 43.88745 18.74173 33196 ft 507 kts 104°
2026-05-04 08:37 43.81310 19.06795 33204 ft 506 kts 104°
2026-05-04 08:38 43.79191 19.16004 33189 ft 505 kts 104°
2026-05-04 08:38 43.77060 19.25246 33195 ft 503 kts 103°
2026-05-04 08:40 43.69350 19.62311 33191 ft 502 kts 102°
2026-05-04 08:41 43.67395 19.71573 33225 ft 501 kts 102°
2026-05-04 08:41 43.65431 19.80818 33190 ft 501 kts 102°
2026-05-04 08:42 43.63464 19.90055 33197 ft 500 kts 102°
2026-05-04 08:42 43.61494 19.99264 33201 ft 499 kts 102°
2026-05-04 08:43 43.59524 20.08443 33226 ft 499 kts 102°
2026-05-04 08:43 43.57559 20.17548 33199 ft 498 kts 102°
2026-05-04 08:44 43.55577 20.26697 33204 ft 497 kts 102°
2026-05-04 08:46 43.47607 20.63099 33198 ft 496 kts 102°
2026-05-04 08:46 43.45596 20.72180 33237 ft 496 kts 102°
2026-05-04 08:47 43.43580 20.81253 33203 ft 495 kts 102°
2026-05-04 08:47 43.41564 20.90285 33201 ft 493 kts 102°
2026-05-04 08:48 43.39886 20.97766 33188 ft 491 kts 102°
2026-05-04 08:48 43.37871 21.06730 33234 ft 491 kts 102°
2026-05-04 08:49 43.35846 21.15693 33198 ft 490 kts 102°
2026-05-04 08:50 43.28727 21.46925 33208 ft 489 kts 102°
2026-05-04 08:51 43.26691 21.55779 33205 ft 489 kts 102°
2026-05-04 08:51 43.24636 21.64677 33208 ft 490 kts 102°
2026-05-04 08:52 43.22571 21.73584 33212 ft 490 kts 102°
2026-05-04 08:52 43.20497 21.82492 33209 ft 490 kts 102°
2026-05-04 08:54 43.12121 22.18107 33196 ft 493 kts 102°
2026-05-04 08:55 43.10002 22.27032 33199 ft 493 kts 102°
2026-05-04 08:55 43.07877 22.35936 33236 ft 492 kts 102°
2026-05-04 09:01 42.84218 23.27619 33177 ft 484 kts 107°
2026-05-04 09:01 42.81867 23.36133 33189 ft 482 kts 107°
2026-05-04 09:02 42.79507 23.44638 33157 ft 478 kts 108°
2026-05-04 09:02 42.77162 23.53058 33160 ft 474 kts 108°
2026-05-04 09:03 42.74827 23.61414 33178 ft 471 kts 108°
2026-05-04 09:03 42.72494 23.69739 33161 ft 470 kts 108°
2026-05-04 09:04 42.70170 23.78006 33166 ft 471 kts 108°
2026-05-04 09:04 42.67822 23.86330 33161 ft 472 kts 108°
2026-05-04 09:05 42.65463 23.94665 33159 ft 473 kts 109°
2026-05-04 09:05 42.63093 24.03004 33155 ft 473 kts 109°
2026-05-04 09:06 42.60717 24.11336 33141 ft 473 kts 109°
2026-05-04 09:08 42.51272 24.44213 33125 ft 463 kts 110°
2026-05-04 09:08 42.48913 24.52354 33132 ft 463 kts 110°
2026-05-04 09:09 42.46553 24.60472 33124 ft 463 kts 110°
2026-05-04 09:09 42.44182 24.68606 33117 ft 463 kts 110°
2026-05-04 09:10 42.41827 24.76661 33117 ft 463 kts 110°
2026-05-04 09:10 42.39450 24.84765 33114 ft 463 kts 110°
2026-05-04 09:11 42.37069 24.92857 33114 ft 463 kts 110°
2026-05-04 09:11 42.34678 25.00954 33117 ft 463 kts 111°
2026-05-04 09:12 42.32286 25.09033 33114 ft 463 kts 111°
2026-05-04 09:14 42.22719 25.41086 33117 ft 458 kts 111°
2026-05-04 09:14 42.20330 25.49034 33121 ft 456 kts 111°
2026-05-04 09:15 42.17941 25.56951 33113 ft 455 kts 111°
2026-05-04 09:15 42.15549 25.64856 33114 ft 454 kts 111°
2026-05-04 09:17 42.04767 26.00199 33106 ft 453 kts 112°
2026-05-04 09:18 42.02377 26.07968 33112 ft 452 kts 111°
2026-05-04 09:18 41.99967 26.15778 33103 ft 452 kts 112°
2026-05-04 09:19 41.97557 26.23570 33104 ft 451 kts 112°
2026-05-04 09:19 41.95143 26.31349 33106 ft 451 kts 112°
2026-05-04 09:20 41.92728 26.39113 33102 ft 450 kts 111°
2026-05-04 09:20 41.90308 26.46870 33089 ft 449 kts 111°
2026-05-04 09:21 41.87889 26.54598 33094 ft 448 kts 112°
2026-05-04 09:21 41.85171 26.62070 33091 ft 449 kts 116°
2026-05-04 09:22 41.82224 26.69457 33081 ft 449 kts 116°
2026-05-04 09:22 41.79284 26.76854 33080 ft 450 kts 116°
2026-05-04 09:23 41.76348 26.84258 33074 ft 450 kts 116°
2026-05-04 09:23 41.73402 26.91674 33075 ft 451 kts 116°
2026-05-04 09:25 41.61515 27.21414 33064 ft 455 kts 116°
2026-05-04 09:26 41.58510 27.28887 33051 ft 456 kts 116°
2026-05-04 09:26 41.55501 27.36344 33049 ft 456 kts 116°
2026-05-04 09:27 41.52503 27.43757 33048 ft 456 kts 116°
2026-05-04 09:27 41.49464 27.51256 33055 ft 456 kts 115°
2026-05-04 09:28 41.46464 27.58642 33040 ft 456 kts 115°
2026-05-04 09:28 41.43444 27.66061 33046 ft 455 kts 115°
2026-05-04 09:29 41.40426 27.73456 33039 ft 454 kts 115°
2026-05-04 09:29 41.37398 27.80856 33039 ft 454 kts 115°
2026-05-04 09:30 41.34375 27.88228 33045 ft 453 kts 115°
2026-05-04 09:30 41.31347 27.95593 33041 ft 453 kts 116°
2026-05-04 09:31 41.28313 28.02951 33046 ft 454 kts 116°
2026-05-04 09:31 41.25291 28.10265 33054 ft 454 kts 115°
2026-05-04 09:32 41.22245 28.17620 33037 ft 454 kts 115°
2026-05-04 09:34 41.13531 28.44172 33036 ft 445 kts 93°
2026-05-04 09:34 41.13406 28.48258 33048 ft 442 kts 88°
2026-05-04 09:34 41.13382 28.56366 33038 ft 443 kts 88°
2026-05-04 09:35 41.13334 28.64542 33047 ft 443 kts 88°
2026-05-04 09:35 41.13250 28.72738 33045 ft 445 kts 88°
2026-05-04 09:37 41.12848 29.04270 32977 ft 448 kts 88°
2026-05-04 09:38 41.12417 29.12549 33018 ft 453 kts 96°
2026-05-04 09:38 41.10916 29.20703 33020 ft 458 kts 105°
2026-05-04 09:39 41.08643 29.28622 33023 ft 460 kts 107°
2026-05-04 09:39 41.06317 29.36544 33023 ft 462 kts 107°
2026-05-04 09:40 41.04010 29.44498 33028 ft 462 kts 107°
2026-05-04 09:40 41.01723 29.52413 33023 ft 463 kts 107°
2026-05-04 09:42 40.91839 29.84121 33040 ft 468 kts 109°
2026-05-04 09:43 40.89259 29.92037 33027 ft 468 kts 109°
2026-05-04 09:43 40.86673 29.99955 33025 ft 469 kts 109°
2026-05-04 09:44 40.84081 30.07864 33022 ft 469 kts 109°
2026-05-04 09:46 40.73631 30.39535 33014 ft 473 kts 110°
2026-05-04 09:46 40.70984 30.47501 33018 ft 475 kts 110°
2026-05-04 09:47 40.68323 30.55486 33003 ft 477 kts 110°
2026-05-04 09:49 40.55675 30.86378 32995 ft 483 kts 119°
2026-05-04 09:51 40.42941 31.12367 32959 ft 483 kts 119°
2026-05-04 09:51 40.39470 31.19877 32930 ft 478 kts 112°
2026-05-04 09:52 40.37126 31.27961 32938 ft 472 kts 102°
2026-05-04 09:52 40.35741 31.36351 32921 ft 471 kts 98°
2026-05-04 09:53 40.34417 31.44786 32904 ft 472 kts 98°
2026-05-04 09:53 40.33055 31.53218 32936 ft 473 kts 99°
2026-05-04 09:54 40.31668 31.61669 32904 ft 476 kts 99°
2026-05-04 09:54 40.30263 31.70169 32875 ft 478 kts 99°
2026-05-04 09:55 40.28861 31.78629 32859 ft 479 kts 99°
2026-05-04 09:55 40.27443 31.87157 32855 ft 480 kts 99°
2026-05-04 09:56 40.25871 31.95686 32849 ft 482 kts 102°
2026-05-04 09:56 40.24023 32.04134 32844 ft 483 kts 103°
2026-05-04 09:57 40.22154 32.12576 32844 ft 484 kts 103°
2026-05-04 09:57 40.20293 32.21047 32841 ft 484 kts 103°
2026-05-04 09:58 40.18435 32.29524 32821 ft 485 kts 103°
2026-05-04 09:58 40.16571 32.37999 32837 ft 485 kts 103°
2026-05-04 10:00 40.09046 32.71876 32828 ft 486 kts 104°
2026-05-04 10:04 39.92513 33.30029 32806 ft 491 kts 110°
2026-05-04 10:04 39.90037 33.38322 32799 ft 490 kts 110°
2026-05-04 10:05 39.87559 33.46598 32783 ft 489 kts 110°
2026-05-04 10:05 39.85087 33.54835 32787 ft 488 kts 110°
2026-05-04 10:06 39.82735 33.63056 32784 ft 487 kts 105°
2026-05-04 10:06 39.81045 33.71566 32790 ft 486 kts 103°
2026-05-04 10:08 39.74137 34.01107 32784 ft 490 kts 110°
2026-05-04 10:08 39.71748 34.09416 32786 ft 491 kts 110°
2026-05-04 10:09 39.69387 34.17681 32786 ft 491 kts 110°
2026-05-04 10:09 39.67012 34.26015 32782 ft 492 kts 110°
2026-05-04 10:10 39.64633 34.34341 32779 ft 492 kts 111°
2026-05-04 10:10 39.62247 34.42661 32787 ft 492 kts 111°
2026-05-04 10:11 39.59851 34.50983 32781 ft 493 kts 111°
2026-05-04 10:11 39.57449 34.59303 32782 ft 492 kts 111°
2026-05-04 10:12 39.55043 34.67612 32782 ft 493 kts 111°
2026-05-04 10:12 39.52626 34.75929 32788 ft 493 kts 111°
2026-05-04 10:13 39.50204 34.84239 32785 ft 494 kts 111°
2026-05-04 10:13 39.47773 34.92554 32785 ft 494 kts 112°
2026-05-04 10:14 39.45333 35.00874 32790 ft 495 kts 112°
2026-05-04 10:16 39.35603 35.34143 32784 ft 495 kts 112°
2026-05-04 10:16 39.33187 35.42480 32770 ft 495 kts 112°
2026-05-04 10:17 39.30758 35.50816 32778 ft 496 kts 113°
2026-05-04 10:19 39.20947 35.84199 32777 ft 498 kts 114°
2026-05-04 10:19 39.18491 35.92496 32784 ft 499 kts 114°
2026-05-04 10:20 39.16042 36.00861 32771 ft 500 kts 111°
2026-05-04 10:20 39.14438 36.09595 32779 ft 503 kts 102°
2026-05-04 10:21 39.13370 36.18500 32772 ft 503 kts 102°
2026-05-04 10:21 39.12285 36.27389 32786 ft 502 kts 102°
2026-05-04 10:22 39.10588 36.40716 32772 ft 503 kts 102°
2026-05-04 10:23 39.09437 36.49583 32772 ft 502 kts 102°
2026-05-04 10:25 39.04979 36.83534 32781 ft 502 kts 103°
2026-05-04 10:25 39.03801 36.92379 32777 ft 501 kts 104°
2026-05-04 10:26 39.02614 37.01236 32798 ft 502 kts 104°
2026-05-04 10:26 39.01421 37.10084 32809 ft 503 kts 104°
2026-05-04 10:27 39.00218 37.18954 32805 ft 504 kts 104°
2026-05-04 10:27 38.99007 37.27835 32795 ft 504 kts 104°
2026-05-04 10:28 38.97790 37.36711 32815 ft 505 kts 104°
2026-05-04 10:28 38.96568 37.45559 32814 ft 506 kts 104°
2026-05-04 10:29 38.95331 37.54470 32804 ft 507 kts 105°
2026-05-04 10:29 38.94086 37.63383 32822 ft 507 kts 105°
2026-05-04 10:30 38.92834 37.72301 32826 ft 506 kts 105°
2026-05-04 10:30 38.91580 37.81186 32824 ft 505 kts 105°
2026-05-04 10:31 38.90323 37.90044 32832 ft 504 kts 105°
2026-05-04 10:32 38.85878 38.20929 32849 ft 503 kts 106°
2026-05-04 10:33 38.84591 38.29765 32867 ft 504 kts 107°
2026-05-04 10:33 38.83295 38.38611 32869 ft 504 kts 107°
2026-05-04 10:34 38.81993 38.47454 32840 ft 504 kts 107°
2026-05-04 10:34 38.80687 38.56284 32862 ft 504 kts 108°
2026-05-04 10:35 38.79369 38.65129 32870 ft 506 kts 108°
2026-05-04 10:35 38.78041 38.74004 32874 ft 507 kts 108°
2026-05-04 10:36 38.76710 38.82859 32850 ft 506 kts 108°
2026-05-04 10:36 38.75369 38.91726 32941 ft 509 kts 108°
2026-05-04 10:37 38.74701 38.96192 33238 ft 511 kts 108°
2026-05-04 10:37 38.74041 39.00656 33647 ft 509 kts 108°
2026-05-04 10:37 38.73386 39.05101 34024 ft 507 kts 108°
2026-05-04 10:37 38.72729 39.09527 34329 ft 506 kts 108°
2026-05-04 10:39 38.68992 39.36264 34903 ft 511 kts 106°
2026-05-04 10:39 38.68445 39.40752 34919 ft 510 kts 106°
2026-05-04 10:40 38.67329 39.49701 34907 ft 508 kts 107°
2026-05-04 10:40 38.66188 39.58602 34918 ft 507 kts 107°
2026-05-04 10:41 38.65031 39.67496 34918 ft 507 kts 107°
2026-05-04 10:41 38.63870 39.76388 34914 ft 507 kts 107°
2026-05-04 10:42 38.62704 39.85289 34938 ft 508 kts 106°
2026-05-04 10:42 38.61529 39.94201 34939 ft 509 kts 107°
2026-05-04 10:43 38.60343 40.03140 34945 ft 510 kts 107°
2026-05-04 10:45 38.55517 40.38977 34967 ft 511 kts 107°
2026-05-04 10:45 38.54330 40.47874 34963 ft 511 kts 107°
2026-05-04 10:46 38.53173 40.56842 34967 ft 512 kts 107°
2026-05-04 10:46 38.52011 40.65805 34959 ft 511 kts 107°
2026-05-04 10:47 38.50832 40.74777 34937 ft 512 kts 107°
2026-05-04 10:47 38.49645 40.83736 34981 ft 511 kts 107°
2026-05-04 10:49 38.42591 41.18416 34963 ft 496 kts 124°
2026-05-04 10:50 38.39557 41.26326 34966 ft 497 kts 124°
2026-05-04 10:52 38.27485 41.58248 34967 ft 500 kts 125°
2026-05-04 10:52 38.24477 41.66180 34976 ft 499 kts 125°
2026-05-04 10:54 38.12347 41.97907 34981 ft 499 kts 125°
2026-05-04 10:56 38.00122 42.29566 34964 ft 501 kts 125°
2026-05-04 10:57 37.97043 42.37495 34977 ft 501 kts 126°
2026-05-04 10:57 37.93984 42.45349 35001 ft 498 kts 126°
2026-05-04 10:58 37.90902 42.53233 34964 ft 499 kts 126°
2026-05-04 10:58 37.87807 42.61128 34975 ft 504 kts 126°
2026-05-04 10:59 37.84555 42.68988 34980 ft 501 kts 130°
2026-05-04 10:59 37.80933 42.76542 34974 ft 502 kts 131°
2026-05-04 11:00 37.77304 42.84039 34977 ft 504 kts 131°
2026-05-04 11:02 37.62770 43.14244 34976 ft 503 kts 131°
2026-05-04 11:05 37.35342 43.70577 34979 ft 505 kts 132°
2026-05-04 11:06 37.31656 43.78082 34973 ft 503 kts 132°
2026-05-04 11:06 37.27980 43.85542 34979 ft 502 kts 132°
2026-05-04 11:08 37.09531 44.00222 34961 ft 451 kts 170°
2026-05-04 11:10 36.89023 44.09767 34929 ft 448 kts 170°
2026-05-04 11:12 36.65776 44.20513 34914 ft 445 kts 170°
2026-05-04 11:12 36.60901 44.22749 34915 ft 446 kts 170°
2026-05-04 11:13 36.55106 44.25406 34904 ft 446 kts 170°
2026-05-04 11:13 36.49277 44.28078 34902 ft 447 kts 170°
2026-05-04 11:14 36.43444 44.30745 34925 ft 448 kts 170°
2026-05-04 11:16 36.19996 44.41426 34908 ft 450 kts 171°
2026-05-04 11:16 36.14117 44.44096 34927 ft 450 kts 170°
2026-05-04 11:17 36.08217 44.46768 34900 ft 451 kts 171°
2026-05-04 11:19 35.84658 44.57399 34903 ft 450 kts 171°
2026-05-04 11:19 35.78759 44.60048 34884 ft 451 kts 171°
2026-05-04 11:20 35.72862 44.62693 34899 ft 451 kts 171°
2026-05-04 11:20 35.66987 44.65325 34909 ft 452 kts 171°
2026-05-04 11:22 35.43274 44.75907 34907 ft 454 kts 171°
2026-05-04 11:23 35.37337 44.78546 34925 ft 454 kts 171°
2026-05-04 11:25 35.16492 44.87778 34923 ft 456 kts 171°
2026-05-04 11:25 35.10562 44.90395 34924 ft 456 kts 171°
2026-05-04 11:27 34.83750 45.02181 34894 ft 454 kts 171°
2026-05-04 11:28 34.77809 45.04779 34902 ft 454 kts 171°
2026-05-04 11:28 34.71852 45.07381 34892 ft 455 kts 171°
2026-05-04 11:29 34.65870 45.09992 34907 ft 457 kts 171°
2026-05-04 11:29 34.59870 45.12606 34900 ft 459 kts 171°
2026-05-04 11:31 34.38641 45.17708 34899 ft 439 kts 186°
2026-05-04 11:33 34.17177 45.19133 34885 ft 442 kts 186°
2026-05-04 11:33 34.11028 45.19552 34892 ft 443 kts 186°
2026-05-04 11:34 34.04913 45.19967 34878 ft 442 kts 186°
2026-05-04 11:34 33.98759 45.20384 34890 ft 443 kts 186°
2026-05-04 11:35 33.92606 45.20800 34895 ft 443 kts 186°
2026-05-04 11:35 33.86442 45.21216 34883 ft 443 kts 186°
2026-05-04 11:36 33.80278 45.21631 34893 ft 444 kts 186°
2026-05-04 11:36 33.74102 45.22047 34900 ft 444 kts 186°
2026-05-04 11:37 33.67922 45.22463 34895 ft 445 kts 186°
2026-05-04 11:37 33.61740 45.22878 34903 ft 445 kts 186°
2026-05-04 11:38 33.55551 45.23293 34905 ft 445 kts 186°
2026-05-04 11:38 33.49406 45.23704 34905 ft 445 kts 186°
2026-05-04 11:39 33.43212 45.24118 34912 ft 445 kts 186°
2026-05-04 11:40 33.24969 45.29488 34901 ft 491 kts 152°
2026-05-04 11:41 33.22305 45.31995 34911 ft 494 kts 150°
2026-05-04 11:41 33.16967 45.37198 34890 ft 496 kts 150°
2026-05-04 11:42 33.11590 45.42365 34903 ft 496 kts 151°
2026-05-04 11:42 33.06170 45.47474 34876 ft 497 kts 151°
2026-05-04 11:43 33.00732 45.52570 34892 ft 498 kts 151°
2026-05-04 11:43 32.95272 45.57685 34893 ft 499 kts 151°
2026-05-04 11:44 32.89838 45.62774 34880 ft 500 kts 151°
2026-05-04 11:44 32.84365 45.67890 34886 ft 501 kts 151°
2026-05-04 11:45 32.78878 45.73008 34862 ft 501 kts 151°
2026-05-04 11:45 32.73401 45.78112 34861 ft 500 kts 151°
2026-05-04 11:46 32.67922 45.83213 34864 ft 500 kts 151°
2026-05-04 11:46 32.62457 45.88293 34859 ft 499 kts 151°
2026-05-04 11:47 32.56993 45.93363 34858 ft 498 kts 151°
2026-05-04 11:47 32.51540 45.98415 34827 ft 498 kts 151°
2026-05-04 11:48 32.46092 46.03454 34851 ft 497 kts 152°
2026-05-04 11:48 32.40667 46.08464 34854 ft 497 kts 152°
2026-05-04 11:49 32.35212 46.13494 34831 ft 497 kts 152°
2026-05-04 11:49 32.29751 46.18521 34832 ft 497 kts 152°
2026-05-04 11:50 32.24288 46.23542 34832 ft 497 kts 152°
2026-05-04 11:50 32.18820 46.28559 34822 ft 498 kts 152°
2026-05-04 11:51 32.13382 46.33542 34815 ft 498 kts 152°
2026-05-04 11:51 32.07902 46.38556 34792 ft 498 kts 152°
2026-05-04 11:52 32.02419 46.43565 34802 ft 498 kts 152°
2026-05-04 11:52 31.96929 46.48572 34798 ft 499 kts 152°
2026-05-04 11:53 31.91435 46.53575 34780 ft 499 kts 152°
2026-05-04 11:53 31.85937 46.58574 34775 ft 499 kts 152°
2026-05-04 11:55 31.63915 46.78520 34755 ft 501 kts 152°
2026-05-04 11:56 31.58394 46.83502 34764 ft 501 kts 152°
2026-05-04 11:56 31.52856 46.88491 34764 ft 501 kts 152°
2026-05-04 11:57 31.47326 46.93465 34754 ft 501 kts 152°
2026-05-04 11:57 31.41788 46.98438 34754 ft 502 kts 152°
2026-05-04 11:58 31.36276 47.03380 34751 ft 502 kts 152°
2026-05-04 11:58 31.30725 47.08351 34757 ft 503 kts 152°
2026-05-04 11:59 31.26096 47.12490 34758 ft 504 kts 152°
2026-05-04 11:59 31.20525 47.17464 34735 ft 504 kts 152°
2026-05-04 12:00 31.14939 47.22445 34755 ft 505 kts 152°
2026-05-04 12:00 31.09351 47.27420 34760 ft 506 kts 152°
2026-05-04 12:01 31.03747 47.32401 34750 ft 506 kts 152°
2026-05-04 12:02 30.84122 47.49808 34769 ft 510 kts 151°
2026-05-04 12:03 30.78733 47.55296 34774 ft 516 kts 147°
2026-05-04 12:03 30.73417 47.60915 34781 ft 516 kts 147°
2026-05-04 12:04 30.68091 47.66516 34766 ft 516 kts 147°
2026-05-04 12:04 30.62746 47.72093 34765 ft 516 kts 147°
2026-05-04 12:05 30.57406 47.77646 34767 ft 515 kts 147°
2026-05-04 12:05 30.52067 47.83188 34762 ft 515 kts 147°
2026-05-04 12:06 30.46758 47.88693 34744 ft 515 kts 147°
2026-05-04 12:06 30.41416 47.94225 34751 ft 515 kts 147°
2026-05-04 12:07 30.36062 47.99761 34758 ft 516 kts 147°
2026-05-04 12:07 30.30702 48.05294 34725 ft 516 kts 147°
2026-05-04 12:08 30.25349 48.10814 34743 ft 515 kts 147°
2026-05-04 12:08 30.19987 48.16333 34779 ft 516 kts 147°
2026-05-04 12:09 30.14626 48.21842 34763 ft 516 kts 147°
2026-05-04 12:09 30.09261 48.27348 34775 ft 516 kts 147°
2026-05-04 12:10 30.03883 48.32859 34773 ft 516 kts 147°
2026-05-04 12:10 29.98512 48.38355 34778 ft 516 kts 147°
2026-05-04 12:11 29.93180 48.43805 34784 ft 516 kts 147°
2026-05-04 12:11 29.87690 48.49061 34795 ft 507 kts 154°
2026-05-04 12:12 29.81698 48.53090 34797 ft 493 kts 163°
2026-05-04 12:12 29.75524 48.56578 34800 ft 494 kts 163°
2026-05-04 12:14 29.50843 48.70802 34778 ft 499 kts 162°
2026-05-04 12:15 29.44675 48.74356 34799 ft 499 kts 162°
2026-05-04 12:15 29.38457 48.77932 34805 ft 500 kts 162°
2026-05-04 12:16 29.32235 48.81508 34784 ft 500 kts 162°
2026-05-04 12:16 29.26009 48.85083 34801 ft 501 kts 162°
2026-05-04 12:17 29.19773 48.88665 34803 ft 501 kts 162°
2026-05-04 12:17 29.13534 48.92238 34800 ft 501 kts 162°
2026-05-04 12:18 29.07290 48.95814 34796 ft 501 kts 162°
2026-05-04 12:18 29.01053 48.99385 34797 ft 501 kts 162°
2026-05-04 12:19 28.94860 49.02926 34782 ft 501 kts 162°
2026-05-04 12:19 28.88632 49.06483 34792 ft 500 kts 162°
2026-05-04 12:20 28.82413 49.10064 34802 ft 501 kts 161°
2026-05-04 12:20 28.76220 49.13743 34782 ft 502 kts 161°
2026-05-04 12:21 28.70019 49.17428 34793 ft 501 kts 161°
2026-05-04 12:21 28.63825 49.21085 34798 ft 501 kts 161°
2026-05-04 12:22 28.57629 49.24733 34790 ft 501 kts 161°
2026-05-04 12:22 28.51479 49.28512 34794 ft 507 kts 156°
2026-05-04 12:23 28.45813 49.33456 34789 ft 519 kts 146°
2026-05-04 12:23 28.40425 49.38936 34788 ft 519 kts 146°
2026-05-04 12:24 28.35002 49.44350 34793 ft 518 kts 147°
2026-05-04 12:24 28.29561 49.49716 34794 ft 518 kts 147°
2026-05-04 12:25 28.24170 49.55052 34785 ft 517 kts 147°
2026-05-04 12:25 28.18622 49.60208 34792 ft 514 kts 151°
2026-05-04 12:26 28.12895 49.65061 34798 ft 514 kts 151°
2026-05-04 12:26 28.07163 49.69949 34775 ft 515 kts 150°
2026-05-04 12:27 28.01438 49.74750 34480 ft 508 kts 153°
2026-05-04 12:27 27.98513 49.77010 34113 ft 510 kts 154°
2026-05-04 12:27 27.95554 49.79256 33384 ft 514 kts 154°
2026-05-04 12:28 27.92573 49.81529 32510 ft 516 kts 153°
2026-05-04 12:28 27.89648 49.83788 31643 ft 517 kts 152°
2026-05-04 12:28 27.86678 49.86103 30774 ft 519 kts 152°
2026-05-04 12:28 27.83699 49.88429 29974 ft 519 kts 152°
2026-05-04 12:29 27.80736 49.90736 29308 ft 514 kts 151°
2026-05-04 12:29 27.77803 49.93005 28643 ft 509 kts 151°
2026-05-04 12:29 27.74905 49.95237 28009 ft 495 kts 151°
2026-05-04 12:29 27.72120 49.97385 26895 ft 478 kts 151°
2026-05-04 12:30 27.69396 49.99480 25587 ft 469 kts 151°
2026-05-04 12:30 27.66714 50.01535 24274 ft 462 kts 150°
2026-05-04 12:30 27.64071 50.03560 22954 ft 455 kts 150°
2026-05-04 12:30 27.61464 50.05558 21601 ft 451 kts 149°
2026-05-04 12:31 27.58895 50.07524 20736 ft 454 kts 149°
2026-05-04 12:31 27.56292 50.09519 20236 ft 451 kts 149°
2026-05-04 12:31 27.53705 50.11502 19701 ft 447 kts 149°
2026-05-04 12:31 27.51122 50.13482 19175 ft 452 kts 149°
2026-05-04 12:32 27.48527 50.15469 18639 ft 447 kts 149°
2026-05-04 12:32 27.43508 50.19329 17708 ft 426 kts 148°
2026-05-04 12:32 27.41107 50.21270 17225 ft 426 kts 146°
2026-05-04 12:33 27.38700 50.23254 16723 ft 432 kts 146°
2026-05-04 12:33 27.36264 50.25264 16203 ft 431 kts 146°
2026-05-04 12:33 27.33891 50.27217 15667 ft 413 kts 146°
2026-05-04 12:33 27.31603 50.29091 15187 ft 404 kts 146°
2026-05-04 12:34 27.29301 50.30964 14726 ft 412 kts 146°
2026-05-04 12:34 27.26974 50.32855 14211 ft 411 kts 146°
2026-05-04 12:34 27.24666 50.34730 13710 ft 409 kts 146°
2026-05-04 12:34 27.22366 50.36592 13164 ft 406 kts 146°
2026-05-04 12:35 27.20106 50.38421 12659 ft 404 kts 146°
2026-05-04 12:35 27.17814 50.40274 12204 ft 406 kts 146°
2026-05-04 12:35 27.15528 50.42124 12028 ft 403 kts 146°
2026-05-04 12:35 27.13260 50.43957 11988 ft 400 kts 146°
2026-05-04 12:36 27.11007 50.45779 11720 ft 398 kts 146°
2026-05-04 12:36 27.08762 50.47593 11322 ft 398 kts 146°
2026-05-04 12:36 27.06515 50.49408 10891 ft 398 kts 146°
2026-05-04 12:36 27.04267 50.51222 10477 ft 397 kts 146°
2026-05-04 12:37 27.02038 50.53013 10242 ft 388 kts 146°
2026-05-04 12:37 26.99873 50.54745 10070 ft 376 kts 146°
2026-05-04 12:37 26.97686 50.56134 10002 ft 351 kts 164°
2026-05-04 12:37 26.95378 50.56597 9977 ft 325 kts 180°
2026-05-04 12:38 26.93212 50.56924 9913 ft 312 kts 172°
2026-05-04 12:38 26.91130 50.57472 9749 ft 304 kts 169°
2026-05-04 12:38 26.89095 50.58053 9423 ft 301 kts 169°
2026-05-04 12:38 26.87070 50.58620 9020 ft 300 kts 169°
2026-05-04 12:39 26.85041 50.59167 8589 ft 300 kts 169°
2026-05-04 12:39 26.83009 50.59696 8226 ft 300 kts 170°
2026-05-04 12:39 26.80973 50.60212 8019 ft 297 kts 170°
2026-05-04 12:39 26.78968 50.60716 7856 ft 294 kts 170°
2026-05-04 12:40 26.76969 50.61218 7674 ft 294 kts 169°
2026-05-04 12:40 26.74963 50.61721 7519 ft 297 kts 169°
2026-05-04 12:40 26.72966 50.62218 7361 ft 298 kts 169°
2026-05-04 12:40 26.70937 50.62719 7206 ft 298 kts 169°
2026-05-04 12:41 26.68905 50.63219 7036 ft 298 kts 169°
2026-05-04 12:41 26.66877 50.63718 6880 ft 298 kts 169°
2026-05-04 12:41 26.64848 50.64216 6718 ft 298 kts 169°
2026-05-04 12:41 26.62825 50.64713 6559 ft 298 kts 169°
2026-05-04 12:42 26.60799 50.65210 6393 ft 297 kts 169°
2026-05-04 12:42 26.58782 50.65705 6239 ft 297 kts 169°
2026-05-04 12:42 26.56768 50.66198 6065 ft 296 kts 169°
2026-05-04 12:42 26.54760 50.66690 5902 ft 295 kts 169°
2026-05-04 12:43 26.52756 50.67181 5732 ft 295 kts 168°
2026-05-04 12:43 26.50764 50.67670 5564 ft 289 kts 168°
2026-05-04 12:43 26.48828 50.68144 5361 ft 280 kts 168°
2026-05-04 12:43 26.46953 50.68603 5173 ft 271 kts 168°
2026-05-04 12:44 26.45160 50.69042 4979 ft 262 kts 168°
2026-05-04 12:44 26.43409 50.69471 4778 ft 254 kts 167°
2026-05-04 12:44 26.41692 50.69890 4610 ft 252 kts 167°
2026-05-04 12:44 26.39977 50.70309 4451 ft 251 kts 167°
2026-05-04 12:45 26.38288 50.70721 4267 ft 244 kts 167°
2026-05-04 12:45 26.36746 50.71334 4093 ft 230 kts 140°
2026-05-04 12:45 26.35708 50.72617 3987 ft 220 kts 118°
2026-05-04 12:45 26.34882 50.74055 3835 ft 220 kts 118°
2026-05-04 12:46 26.34055 50.75495 3668 ft 220 kts 118°
2026-05-04 12:46 26.33508 50.76448 3570 ft 221 kts 118°
2026-05-04 12:46 26.32681 50.77890 3404 ft 221 kts 118°
2026-05-04 12:46 26.31856 50.79328 3236 ft 220 kts 118°
2026-05-04 12:47 26.31030 50.80764 3077 ft 219 kts 118°
2026-05-04 12:47 26.29943 50.82652 2856 ft 216 kts 119°
2026-05-04 12:47 26.28886 50.83830 2622 ft 220 kts 151°
2026-05-04 12:47 26.27897 50.84162 2524 ft 222 kts 176°
2026-05-04 12:48 26.26410 50.83837 2368 ft 222 kts 207°
2026-05-04 12:48 26.25043 50.83022 2256 ft 223 kts 212°
2026-05-04 12:48 26.23707 50.82145 2085 ft 222 kts 214°
2026-05-04 12:48 26.22397 50.81256 1892 ft 218 kts 215°
2026-05-04 12:49 26.21112 50.80409 1706 ft 209 kts 214°
2026-05-04 12:49 26.20115 50.79405 1600 ft 182 kts 251°
2026-05-04 12:49 26.19890 50.78099 1551 ft 175 kts 274°
2026-05-04 12:49 26.19871 50.76735 1533 ft 174 kts 283°
2026-05-04 12:50 26.20301 50.75544 1513 ft 165 kts 305°
2026-05-04 12:50 26.20817 50.74378 1558 ft 167 kts 301°
2026-05-04 12:50 26.21401 50.73272 1511 ft 160 kts 310°
2026-05-04 12:50 26.22012 50.72267 1461 ft 150 kts 309°
2026-05-04 12:51 26.22560 50.71292 1385 ft 150 kts 307°
2026-05-04 12:51 26.23121 50.70300 1165 ft 151 kts 307°
2026-05-04 12:51 26.23672 50.69314 955 ft 148 kts 306°
2026-05-04 12:51 26.24226 50.68362 761 ft 145 kts 307°
2026-05-04 12:52 26.24765 50.67425 562 ft 143 kts 307°
2026-05-04 12:52 26.25299 50.66489 407 ft 144 kts 307°
2026-05-04 12:52 26.25840 50.65543 233 ft 146 kts 306°
2026-05-04 12:52 26.26374 50.64606 37 ft 142 kts 307°
2026-05-04 12:53 26.26840 50.63798 23 ft 103 kts 302°
2026-05-04 12:53 26.27131 50.63264 19 ft 77 kts 304°
2026-05-04 12:53 26.27260 50.62978 22 ft 25 kts 271°
2026-05-04 12:53 26.27260 50.62864 26 ft 9 kts 269°
2026-05-04 12:54 26.27260 50.62797 27 ft 9 kts 270°
2026-05-04 12:54 26.27267 50.62730 25 ft 9 kts 287°
2026-05-04 12:54 26.27291 50.62669 25 ft 9 kts 299°
2026-05-04 12:54 26.27320 50.62617 24 ft 9 kts 303°
2026-05-04 12:55 26.27354 50.62557 24 ft 9 kts 302°
2026-05-04 12:55 26.27391 50.62494 22 ft 10 kts 303°
2026-05-04 12:55 26.27430 50.62427 26 ft 13 kts 303°
2026-05-04 12:55 26.27485 50.62332 22 ft 15 kts 302°
2026-05-04 12:56 26.27524 50.62249 19 ft 9 kts 270°
2026-05-04 12:56 26.27499 50.62185 24 ft 9 kts 230°
2026-05-04 12:56 26.27486 50.62119 21 ft 10 kts 294°
2026-05-04 12:56 26.27511 50.62060 24 ft 7 kts 271°
2026-05-04 12:57 26.27484 50.62028 24 ft 0 kts 214°
2026-05-04 12:57 26.27476 50.62023 24 ft 2 kts 213°
2026-05-04 12:57 26.27467 50.62017 26 ft 0 kts 211°
2026-05-04 12:57 26.27463 50.62014 26 ft 1 kts 212°
2026-05-04 12:58 26.27459 50.62010 26 ft 1 kts 213°
2026-05-04 12:58 26.27454 50.62007 24 ft 1 kts 213°